Regional Weather Roundup
Issued by NWS Jackson, KY

Home | Current Version | Previous Version | Text Only | Print | Product List | Glossary Off
Versions: 1 2 3 4 5 6 7 8 9 10 11 12 13 14 15 16 17 18 19 20 21 22 23 24 25 26 27 28 29 30 31 32 33 34 35 36 37 38 39 40 41 42 43 44 45 46 47 48 49 50

000
ASUS43 KJKL 272210
RWRJKL

EAST KENTUCKY HOURLY WEATHER ROUNDUP
NATIONAL WEATHER SERVICE JACKSON KY
600 PM EDT MON JUL 27 2015

NOTE: "FAIR" INDICATES FEW OR NO CLOUDS BELOW 12,000 FEET WITH
NO SIGNIFICANT WEATHER AND/OR OBSTRUCTIONS TO VISIBILITY.

* THESE REPORTS ARE NOT UNDER NWS QUALITY CONTROL AND MAY NOT
  REPORT WEATHER SUCH AS PRECIPITATION AND FOG.

KYZ079-080-083-085-087-088-110-112-115-119-120-272300
...EASTERN KENTUCKY...

CITY           SKY/WX    TMP DP  RH WIND       PRES   REMARKS
JACKSON        CLOUDY    78  74  87 N5        30.00R FOG
LONDON         PTSUNNY   88  70  55 W6        29.99S HX  93
SOMERSET*      PTSUNNY   84  70  61 NW3       29.98S
MONTICELLO*      N/A     86  76  71 CALM      30.00F HX  96
WILLIAMSBURG*  SUNNY     86  75  70 NW3       29.99  HX  95
MIDDLESBORO*     N/A     86  74  67 CALM      29.99S HX  94
HAZARD APT*    CLEAR     86  73  66 SW5       29.99S HX  93
BLACK MTN*       N/A     77  68  73 SW1         N/A
PIKEVILLE APT* PTSUNNY   82  72  69 CALM      30.00S
BIG SANDY*       N/A     86  72  64 SW3       29.98S HX  92
MOREHEAD APT*  MOCLDY    82  72  69 VRB5G13   29.99R
$$

KYZ035-036-041-042-044-050-067-078-099-272300
...CENTRAL KENTUCKY...

CITY           SKY/WX    TMP DP  RH WIND       PRES   REMARKS
MT STERLING*     N/A     86  73  66 W5        29.98S HX  93
FLEMING/MASON* SUNNY     86  73  66 NE3       29.97S HX  93
DANVILLE*        N/A     88  72  58 W5        29.98F HX  94
RICHMOND*        N/A     86  72  62 CALM      29.97S HX  92
LEXINGTON        N/A     87  72  60 W7        29.96F HX  93
FRANKFORT        N/A     87  71  58 VRB6      29.94F HX  93
$$

KYZ091>093-OHZ055-061-077-WVZ005-015-034-035-042-272300
...SOUTHERN OHIO/WEST VIRGINIA...

CITY           SKY/WX    TMP DP  RH WIND       PRES   REMARKS
COVINGTON        N/A     87  72  60 NE7       29.95F HX  93
COLUMBUS       PTSUNNY   87  69  54 NE5       29.96F HX  91
DAYTON         PTSUNNY   81  72  74 NE10      29.99S
WILMINGTON       N/A     83  71  67 VRB6      29.97F
HUNTINGTON     CLOUDY    82  73  74 SE8       29.95F
CHARLESTON     HVY RAIN  75  67  76 W14       29.97R
PINEVILLE*       N/A     80  75  86 MISG      30.06S
BECKLEY        CLOUDY    82  63  52 SW6       30.06S
BLUEFIELD        N/A     81  66  60 NW3       30.09S
$$

VAZ002-007-008-TNZ017-027-036-066-071-272300
...SOUTHWEST VIRGINIA/EAST TENNESSEE...

CITY           SKY/WX    TMP DP  RH WIND       PRES   REMARKS
WISE*            N/A     82  66  57 SW5       30.09S
ABINGDON*      PTSUNNY   83  67  58 CALM      30.05S
BRISTOL        PTSUNNY   82  72  71 CALM      30.01S
KNOXVILLE      CLOUDY    89  68  49 NW5       29.96S HX  93
OAK RIDGE      PTSUNNY   91  71  51 VRB5      29.97F HX  97
CROSSVILLE       N/A     87  68  52 NW6       30.03F HX  90
NASHVILLE      PTSUNNY   92  73  53 SW6       29.94F HX 100
$$

...KEY TO REMARKS...
VSB - VISIBILITY IN MILES
WCI - WIND CHILL INDEX
HX  - HEAT INDEX

$$


USA.gov is the U.S. government's official web portal to all federal, state and local government web resources and services.